TimeHST,TemperatureF,Dew PointF,Humidity,Sea Level PressureIn,VisibilityMPH,Wind Direction,Wind SpeedMPH,Gust SpeedMPH,PrecipitationIn,Events,Conditions,WindDirDegrees,DateUTC
12:56 AM,66.9,59.0,76,30.17,10.0,Calm,Calm,-,N/A,,Clear,0,2013-02-26 10:56:00
1:56 AM,66.9,60.1,79,30.15,10.0,Calm,Calm,-,N/A,,Scattered Clouds,0,2013-02-26 11:56:00
2:56 AM,64.9,59.0,81,30.14,10.0,East,3.5,-,N/A,,Scattered Clouds,100,2013-02-26 12:56:00
3:56 AM,64.9,60.1,84,30.13,10.0,East,4.6,-,N/A,,Partly Cloudy,100,2013-02-26 13:56:00
4:56 AM,66.9,59.0,76,30.13,10.0,East,4.6,-,N/A,,Partly Cloudy,80,2013-02-26 14:56:00
5:56 AM,66.9,61.0,81,30.13,10.0,Calm,Calm,-,N/A,,Partly Cloudy,0,2013-02-26 15:56:00
6:56 AM,66.0,61.0,84,30.15,10.0,ESE,3.5,-,N/A,,Partly Cloudy,120,2013-02-26 16:56:00
7:56 AM,68.0,59.0,73,30.16,10.0,Calm,Calm,-,N/A,,Clear,0,2013-02-26 17:56:00
8:56 AM,75.0,60.1,60,30.17,10.0,Calm,Calm,-,N/A,,Clear,0,2013-02-26 18:56:00
9:56 AM,75.9,57.9,54,30.18,10.0,NW,6.9,-,N/A,,Scattered Clouds,310,2013-02-26 19:56:00
10:56 AM,78.1,60.1,54,30.18,10.0,West,11.5,-,N/A,,Scattered Clouds,280,2013-02-26 20:56:00
11:56 AM,78.1,60.1,54,30.16,10.0,WNW,12.7,-,N/A,,Clear,290,2013-02-26 21:56:00
12:56 PM,80.1,60.1,50,30.14,10.0,WNW,11.5,-,N/A,,Partly Cloudy,290,2013-02-26 22:56:00
1:56 PM,79.0,60.1,52,30.12,10.0,West,8.1,-,N/A,,Partly Cloudy,270,2013-02-26 23:56:00
2:56 PM,81.0,59.0,47,30.11,10.0,West,12.7,-,N/A,,Scattered Clouds,260,2013-02-27 00:56:00
3:56 PM,80.1,57.9,47,30.10,10.0,NW,12.7,-,N/A,,Mostly Cloudy,320,2013-02-27 01:56:00
4:56 PM,80.1,57.9,47,30.10,10.0,NW,5.8,-,N/A,,Scattered Clouds,320,2013-02-27 02:56:00
5:56 PM,79.0,57.9,48,30.12,10.0,SW,10.4,-,N/A,,Scattered Clouds,220,2013-02-27 03:56:00
6:56 PM,77.0,57.9,52,30.14,10.0,NNW,4.6,-,N/A,,Partly Cloudy,330,2013-02-27 04:56:00
7:56 PM,73.9,53.1,48,30.15,10.0,NNE,5.8,-,N/A,,Partly Cloudy,30,2013-02-27 05:56:00
8:56 PM,73.0,54.0,51,30.16,10.0,Calm,Calm,-,N/A,,Clear,0,2013-02-27 06:56:00
9:56 PM,69.1,53.1,57,30.18,10.0,East,3.5,-,N/A,,Clear,80,2013-02-27 07:56:00
10:56 PM,68.0,52.0,56,30.18,10.0,Calm,Calm,-,N/A,,Clear,0,2013-02-27 08:56:00
11:56 PM,66.9,54.0,63,30.17,10.0,SSE,3.5,-,N/A,,Clear,150,2013-02-27 09:56:00